Retour au catalogue

BREEZE-M DEB

TANK

ActifHEO
NORAD 44309·DEBRIS·🇷🇺 Russia

Lancé May 30, 2019 depuis Baikonur Cosmodrome

Loading…

Prochains Passages (prochaines 24 heures)

TLE

FraisSource: Space-Track

Époque: Sep 14, 2026, 14:56 UTC

1 44309U 19031C   26257.62225311  .00003182  00000-0  75098-3 0  9994
2 44309  49.3972 227.2212 5544311  36.3199 350.8858  4.72393620122354

Suivez BREEZE-M DEB en temps réel avec AllMySat

Download on the App Store